Regional Weather Roundup
Issued by NWS Green Bay, WI

Home | Current Version | Previous Version | Text Only | Print | Product List | Glossary On
Versions: 1 2 3 4 5 6 7 8 9 10 11 12 13 14 15 16 17 18 19 20 21 22 23 24 25 26 27 28 29 30 31 32 33 34 35 36 37 38 39 40 41 42 43 44 45 46 47 48 49 50
149
ASUS43 KGRB 210111
RWRGRB

NORTH-CENTRAL AND NORTHEAST WISCONSIN REGIONAL WEATHER ROUNDUP
NATIONAL WEATHER SERVICE GREEN BAY WI
800 PM CDT FRI OCT 20 2017

WIZ005-009-010>012-018-019-210200-
NORTH CENTRAL WISCONSIN

CITY           SKY/WX    TMP DP  RH WIND       PRES   REMARKS
IRONWOOD       CLOUDY    69  42  37 S16G23    29.79S
MANITOWISH WTR CLOUDY    64  46  51 S12G18    29.86S
ARBOR VITAE    CLOUDY    67  43  41 S13G21    29.88S
EAGLE RIVER    CLOUDY    64  41  43 S6        29.89F
LAND O LAKES   CLOUDY    65  41  42 S8        29.90S
RHINELANDER    CLOUDY    65  43  44 S7        29.91S
PHILLIPS       CLOUDY    65  43  45 S13G18    29.85S
ANTIGO         CLOUDY    59  46  61 S10       29.94S
TOMAHAWK       CLOUDY    61  42  49 CALM      29.90S
MERRILL        CLEAR     66  43  43 S5        29.91S
$$

WIZ013-073-210200-
NORTHEAST WISCONSIN

CITY           SKY/WX    TMP DP  RH WIND       PRES   REMARKS
IRON MOUNTAIN  CLOUDY    64  48  56 S9        29.91F
MARINETTE      CLOUDY    60  53  77 S5        29.96S
OCONTO         PTCLDY    59  53  80 S5        29.94F
$$

WIZ017-030-035>037-045-210200-
CENTRAL WISCONSIN

CITY           SKY/WX    TMP DP  RH WIND       PRES   REMARKS
MEDFORD        CLOUDY    62  44  51 S13G20    29.88S
WAUSAU         PTCLDY    64  44  48 S9        29.90S
MOSINEE        MOCLDY    63  45  51 SE10      29.92S
MARSHFIELD     PTCLDY    62  44  51 S10       29.89S
WISC RAPIDS    CLOUDY    64  45  49 S6        29.92F
STEVENS POINT  CLOUDY    63  44  49 S6        29.93S
WAUPACA        PTCLDY    60  44  57 SE5       29.94S
SHAWANO        PTCLDY    65  47  51 S5        29.94S
CLINTONVILLE   CLOUDY    63  43  48 S6        29.94S
WAUTOMA        CLOUDY    59  46  62 SE3       29.94F
$$

WIZ038-039-048-051-210200-
FOX VALLEY

CITY           SKY/WX    TMP DP  RH WIND       PRES   REMARKS
NWS GREEN BAY  CLOUDY    62  49  62 SE5       29.96S
APPLETON       NOT AVBL
OSHKOSH        CLOUDY    60  48  64 S8        29.96S
FOND DU LAC    CLOUDY    63  46  54 S7        29.97S
$$

WIZ022-050-052-210200-
EAST CENTRAL WISCONSIN

CITY           SKY/WX    TMP DP  RH WIND       PRES   REMARKS
EPHRAIM        FAIR      58  52  79 S10       29.96F
WASHINGTON ISL FAIR      57  53  88 S10G17    29.96F
STURGEON BAY   CLOUDY    59  52  77 S10       29.97F
MANITOWOC      CLOUDY    58  51  78 S7        29.99S
SHEBOYGAN      CLOUDY    56  52  86 S7        29.99F
$$

LMZ563-521-522-541>543-210200-
LAKESHORE

STATION/POSITION TIME  TEMP    WIND        PRES    VSBY  WAVE
                       AIR SEA DIR/SP/G                  HT/PER
                 (UTC) (F)     (DEG/KT/KT) (MB)    (MI)  (FT/S)
SHEBOYGAN LKSHOR 0100   61     180/ 17/ 18 1015.5F
KEWAUNEE LKSHORE 0042   56     180/ 12/ 13 1014.5F
NORTHPORT PIER   0040   60     170/  7/ 14 1014.6S
N MID LAKE BUOY  0050   61 58  190/ 17/ 21 1015.4R         5/ 6
S GREEN BAY BUOY 0100   62 58  170/ 10/ 10 1014.1
SISTER BAY LKSHO 0104   61     170/ 15/ 17   N/A
MENOMINEE LKSHOR 0042   60     170/  8/ 11 1014.0S
$$




USA.gov is the U.S. government's official web portal to all federal, state and local government web resources and services.